AEE57M LGAV-EPKK

Flight info

Callsign AEE57M
Flight time 1h 57m
Altitude 36000
Route KRO UT162 KOROS UN133 GIKAS DCT ATFIR DCT RUPUG DCT ETNOG DCT LENOV
Aircraft A320/M-SDE3FGHIRWY/LB1

Departure

Time 2026-05-04 05:54
Airport Athens Eleftherios Venizelos International Airport (LGAV)

Arrival

Time 2026-05-04 07:52
Airport Kraków John Paul II International Airport (EPKK)
Time Latitude Longitude Altitude Speed Heading
2026-05-04 05:35 37.94163 23.95299 300 ft 0 kts 217°
2026-05-04 05:45 37.94243 23.95327 301 ft 0 kts 127°
2026-05-04 05:47 37.94242 23.95328 301 ft 1 kts 127°
2026-05-04 05:47 37.94234 23.95342 303 ft 3 kts 126°
2026-05-04 05:47 37.94217 23.95371 304 ft 5 kts 126°
2026-05-04 05:48 37.94201 23.95399 300 ft 7 kts 126°
2026-05-04 05:48 37.94169 23.95453 300 ft 9 kts 128°
2026-05-04 05:48 37.94146 23.95532 303 ft 11 kts 107°
2026-05-04 05:48 37.94095 23.95618 298 ft 14 kts 129°
2026-05-04 05:49 37.94004 23.95617 300 ft 17 kts 217°
2026-05-04 05:49 37.93914 23.95532 300 ft 11 kts 216°
2026-05-04 05:49 37.93846 23.95468 297 ft 13 kts 216°
2026-05-04 05:49 37.93766 23.95394 300 ft 15 kts 216°
2026-05-04 05:51 37.93134 23.94919 298 ft 14 kts 76°
2026-05-04 05:51 37.93164 23.95049 293 ft 12 kts 94°
2026-05-04 05:52 37.93193 23.95126 292 ft 6 kts 34°
2026-05-04 05:52 37.93195 23.95127 292 ft 1 kts 35°
2026-05-04 05:52 37.93260 23.95188 293 ft 39 kts 37°
2026-05-04 05:52 37.93675 23.95582 280 ft 107 kts 37°
2026-05-04 05:53 37.94409 23.96278 293 ft 154 kts 37°
2026-05-04 05:54 38.00524 24.01974 4158 ft 182 kts 32°
2026-05-04 05:55 38.01595 24.02987 4428 ft 203 kts 33°
2026-05-04 05:55 38.02793 24.04140 4662 ft 230 kts 33°
2026-05-04 05:55 38.04085 24.05376 5423 ft 235 kts 33°
2026-05-04 05:55 38.05402 24.06641 6269 ft 239 kts 33°
2026-05-04 05:56 38.06739 24.07927 7135 ft 242 kts 33°
2026-05-04 05:56 38.08067 24.09211 7974 ft 244 kts 33°
2026-05-04 05:56 38.09499 24.10338 8806 ft 242 kts 19°
2026-05-04 05:56 38.11113 24.10916 9621 ft 243 kts
2026-05-04 05:57 38.12839 24.10887 10163 ft 254 kts 354°
2026-05-04 05:57 38.14651 24.10688 10572 ft 271 kts 354°
2026-05-04 05:57 38.16609 24.10492 10754 ft 294 kts 354°
2026-05-04 05:57 38.18732 24.10288 10997 ft 313 kts 355°
2026-05-04 05:58 38.20927 24.10082 11545 ft 320 kts 355°
2026-05-04 05:58 38.23161 24.09871 12176 ft 324 kts 355°
2026-05-04 05:58 38.25427 24.09651 12792 ft 329 kts 355°
2026-05-04 05:58 38.27724 24.09425 13398 ft 334 kts 355°
2026-05-04 05:59 38.30057 24.09196 14028 ft 338 kts 355°
2026-05-04 05:59 38.32417 24.08966 14590 ft 342 kts 355°
2026-05-04 05:59 38.34802 24.08735 15195 ft 344 kts 355°
2026-05-04 05:59 38.37207 24.08502 15727 ft 349 kts 355°
2026-05-04 06:00 38.39608 24.08268 16265 ft 352 kts 355°
2026-05-04 06:00 38.42064 24.08027 16848 ft 355 kts 355°
2026-05-04 06:00 38.44528 24.07783 17432 ft 357 kts 355°
2026-05-04 06:00 38.47019 24.07535 18020 ft 360 kts 355°
2026-05-04 06:01 38.49524 24.07287 18582 ft 363 kts 355°
2026-05-04 06:01 38.52051 24.07038 19074 ft 366 kts 355°
2026-05-04 06:03 38.70191 24.05252 22557 ft 382 kts 355°
2026-05-04 06:03 38.72853 24.04991 23002 ft 385 kts 355°
2026-05-04 06:05 38.92079 24.03078 25516 ft 405 kts 355°
2026-05-04 06:05 38.97707 24.02527 26301 ft 406 kts 354°
2026-05-04 06:05 39.00564 24.02240 26716 ft 407 kts 354°
2026-05-04 06:06 39.03367 24.01955 27008 ft 411 kts 355°
2026-05-04 06:06 39.06225 24.01664 27342 ft 414 kts 354°
2026-05-04 06:06 39.09106 24.01369 27711 ft 415 kts 354°
2026-05-04 06:06 39.11992 24.01079 28095 ft 416 kts 354°
2026-05-04 06:07 39.14891 24.00794 28470 ft 417 kts 354°
2026-05-04 06:07 39.17778 24.00507 28998 ft 415 kts 354°
2026-05-04 06:07 39.20644 24.00221 29588 ft 411 kts 354°
2026-05-04 06:07 39.23487 23.99936 30176 ft 409 kts 354°
2026-05-04 06:08 39.26324 23.99652 30600 ft 408 kts 354°
2026-05-04 06:08 39.29142 23.99371 31011 ft 406 kts 354°
2026-05-04 06:08 39.31957 23.99088 31425 ft 405 kts 354°
2026-05-04 06:08 39.34769 23.98803 31843 ft 404 kts 354°
2026-05-04 06:09 39.37563 23.98521 32258 ft 403 kts 354°
2026-05-04 06:09 39.40321 23.98242 32673 ft 402 kts 354°
2026-05-04 06:11 39.59767 23.96282 35139 ft 401 kts 354°
2026-05-04 06:11 39.62550 23.95996 35389 ft 402 kts 354°
2026-05-04 06:13 39.82418 23.93963 36161 ft 418 kts 355°
2026-05-04 06:14 40.02690 23.91899 36167 ft 419 kts 355°
2026-05-04 06:15 40.08501 23.91295 36170 ft 419 kts 355°
2026-05-04 06:15 40.14326 23.90694 36169 ft 420 kts 355°
2026-05-04 06:16 40.20150 23.90096 36168 ft 420 kts 355°
2026-05-04 06:16 40.25973 23.89501 36168 ft 420 kts 355°
2026-05-04 06:17 40.31805 23.88894 36175 ft 420 kts 355°
2026-05-04 06:17 40.37644 23.88278 36176 ft 421 kts 355°
2026-05-04 06:18 40.43481 23.87671 36178 ft 421 kts 355°
2026-05-04 06:20 40.66818 23.85235 36177 ft 422 kts 355°
2026-05-04 06:21 40.81456 23.83705 36179 ft 422 kts 356°
2026-05-04 06:22 40.87313 23.83096 36185 ft 422 kts 355°
2026-05-04 06:25 41.28328 23.78737 36190 ft 422 kts 356°
2026-05-04 06:26 41.34178 23.78111 36183 ft 422 kts 356°
2026-05-04 06:26 41.39981 23.77468 36183 ft 422 kts 353°
2026-05-04 06:27 41.54416 23.73881 36177 ft 422 kts 351°
2026-05-04 06:28 41.60177 23.72424 36186 ft 421 kts 351°
2026-05-04 06:28 41.65932 23.70972 36182 ft 421 kts 351°
2026-05-04 06:29 41.71687 23.69508 36182 ft 420 kts 351°
2026-05-04 06:29 41.77432 23.68041 36180 ft 420 kts 351°
2026-05-04 06:30 41.83174 23.66581 36181 ft 420 kts 351°
2026-05-04 06:30 41.88914 23.65114 36178 ft 420 kts 351°
2026-05-04 06:31 41.94653 23.63640 36182 ft 420 kts 351°
2026-05-04 06:31 42.00364 23.62186 36179 ft 420 kts 351°
2026-05-04 06:33 42.23313 23.56279 36177 ft 420 kts 351°
2026-05-04 06:34 42.29056 23.54797 36181 ft 420 kts 351°
2026-05-04 06:34 42.34804 23.53312 36183 ft 420 kts 351°
2026-05-04 06:36 42.56807 23.47580 36182 ft 420 kts 351°
2026-05-04 06:37 42.62552 23.46079 36165 ft 420 kts 351°
2026-05-04 06:37 42.68292 23.44576 36177 ft 420 kts 351°
2026-05-04 06:38 42.74035 23.43075 36205 ft 420 kts 351°
2026-05-04 06:40 42.96967 23.37024 36171 ft 420 kts 351°
2026-05-04 06:40 43.02711 23.35502 36172 ft 420 kts 351°
2026-05-04 06:41 43.08447 23.33977 36177 ft 420 kts 351°
2026-05-04 06:41 43.14183 23.32455 36179 ft 420 kts 351°
2026-05-04 06:42 43.19927 23.30935 36172 ft 421 kts 351°
2026-05-04 06:44 43.42929 23.24761 36165 ft 421 kts 351°
2026-05-04 06:44 43.48689 23.23217 36166 ft 422 kts 351°
2026-05-04 06:45 43.54447 23.21662 36166 ft 422 kts 351°
2026-05-04 06:45 43.60175 23.20116 36165 ft 422 kts 351°
2026-05-04 06:46 43.65942 23.18560 36160 ft 422 kts 351°
2026-05-04 06:46 43.71694 23.17004 36174 ft 421 kts 351°
2026-05-04 06:48 43.94691 23.10729 36169 ft 422 kts 351°
2026-05-04 06:50 44.17607 23.04442 36178 ft 418 kts 351°
2026-05-04 06:51 44.23309 23.02864 36169 ft 418 kts 351°
2026-05-04 06:51 44.29018 23.01286 36163 ft 419 kts 351°
2026-05-04 06:52 44.34741 22.99710 36131 ft 419 kts 351°
2026-05-04 06:52 44.40459 22.98124 36154 ft 418 kts 351°
2026-05-04 06:53 44.46164 22.96533 36164 ft 418 kts 351°
2026-05-04 06:53 44.51824 22.94959 36175 ft 417 kts 351°
2026-05-04 06:54 44.57551 22.93361 36164 ft 417 kts 351°
2026-05-04 06:54 44.63200 22.91775 36172 ft 417 kts 351°
2026-05-04 06:55 44.68883 22.90185 36164 ft 417 kts 351°
2026-05-04 06:55 44.74583 22.88579 36156 ft 417 kts 351°
2026-05-04 06:57 44.97417 22.82129 36144 ft 419 kts 352°
2026-05-04 06:58 45.03104 22.80516 36139 ft 420 kts 352°
2026-05-04 06:58 45.08827 22.78898 36115 ft 420 kts 351°
2026-05-04 06:59 45.14578 22.77266 36118 ft 422 kts 351°
2026-05-04 06:59 45.20345 22.75613 36126 ft 423 kts 351°
2026-05-04 07:01 45.43481 22.68971 36157 ft 424 kts 351°
2026-05-04 07:02 45.49262 22.67296 36174 ft 423 kts 351°
2026-05-04 07:02 45.55021 22.65623 36196 ft 422 kts 351°
2026-05-04 07:03 45.60722 22.63972 36199 ft 420 kts 352°
2026-05-04 07:03 45.66447 22.62319 36199 ft 419 kts 351°
2026-05-04 07:04 45.72150 22.60667 36197 ft 418 kts 351°
2026-05-04 07:04 45.77857 22.59007 36187 ft 418 kts 351°
2026-05-04 07:05 45.83563 22.57340 36167 ft 418 kts 351°
2026-05-04 07:05 45.89272 22.55670 36176 ft 419 kts 351°
2026-05-04 07:06 45.97845 22.53150 36170 ft 419 kts 351°
2026-05-04 07:07 46.03570 22.51466 36171 ft 420 kts 351°
2026-05-04 07:09 46.26517 22.44677 36164 ft 423 kts 350°
2026-05-04 07:09 46.32278 22.42963 36170 ft 423 kts 350°
2026-05-04 07:10 46.38041 22.41241 36175 ft 423 kts 350°
2026-05-04 07:12 46.61146 22.34309 36167 ft 424 kts 350°
2026-05-04 07:12 46.66934 22.32571 36178 ft 424 kts 350°
2026-05-04 07:13 46.72678 22.30836 36182 ft 424 kts 350°
2026-05-04 07:13 46.78453 22.29093 36191 ft 424 kts 350°
2026-05-04 07:14 46.92923 22.24651 36197 ft 425 kts 349°
2026-05-04 07:15 46.98667 22.22540 36182 ft 426 kts 347°
2026-05-04 07:15 47.04395 22.20315 36196 ft 426 kts 347°
2026-05-04 07:16 47.10126 22.18131 36200 ft 425 kts 347°
2026-05-04 07:16 47.15860 22.15992 36193 ft 425 kts 347°
2026-05-04 07:17 47.21596 22.13847 36194 ft 425 kts 347°
2026-05-04 07:17 47.27335 22.11694 36193 ft 425 kts 347°
2026-05-04 07:18 47.33037 22.09553 36202 ft 426 kts 347°
2026-05-04 07:18 47.38780 22.07378 36192 ft 426 kts 347°
2026-05-04 07:19 47.44526 22.05202 36193 ft 426 kts 347°
2026-05-04 07:19 47.50279 22.03019 36187 ft 427 kts 347°
2026-05-04 07:20 47.56034 22.00825 36193 ft 427 kts 347°
2026-05-04 07:20 47.61794 21.98632 36199 ft 427 kts 347°
2026-05-04 07:22 47.84279 21.86878 36194 ft 430 kts 341°
2026-05-04 07:23 47.89888 21.83762 36197 ft 430 kts 341°
2026-05-04 07:23 47.95502 21.80636 36197 ft 431 kts 341°
2026-05-04 07:24 48.01117 21.77493 36199 ft 431 kts 340°
2026-05-04 07:24 48.06730 21.74329 36189 ft 431 kts 340°
2026-05-04 07:26 48.28206 21.62218 36190 ft 430 kts 340°
2026-05-04 07:27 48.33806 21.59030 36182 ft 430 kts 340°
2026-05-04 07:27 48.39399 21.55833 36182 ft 430 kts 340°
2026-05-04 07:28 48.45000 21.52626 36173 ft 431 kts 340°
2026-05-04 07:28 48.50610 21.49425 36174 ft 431 kts 340°
2026-05-04 07:29 48.56219 21.46220 36179 ft 431 kts 340°
2026-05-04 07:29 48.61827 21.42989 36178 ft 431 kts 340°
2026-05-04 07:30 48.67435 21.39757 36176 ft 431 kts 340°
2026-05-04 07:30 48.70209 21.38157 35984 ft 432 kts 340°
2026-05-04 07:30 48.73010 21.36541 35724 ft 431 kts 340°
2026-05-04 07:31 48.75813 21.34921 35476 ft 430 kts 340°
2026-05-04 07:31 48.78600 21.33307 35223 ft 429 kts 340°
2026-05-04 07:33 48.98167 21.21923 33431 ft 432 kts 340°
2026-05-04 07:33 49.00979 21.20275 32813 ft 434 kts 340°
2026-05-04 07:33 49.03816 21.18610 31874 ft 439 kts 340°
2026-05-04 07:33 49.06670 21.16934 30999 ft 442 kts 340°
2026-05-04 07:34 49.09553 21.15243 29945 ft 447 kts 340°
2026-05-04 07:34 49.12471 21.13532 29150 ft 445 kts 340°
2026-05-04 07:34 49.15332 21.11854 28604 ft 437 kts 340°
2026-05-04 07:34 49.18156 21.10196 27977 ft 432 kts 340°
2026-05-04 07:35 49.20944 21.08550 27349 ft 427 kts 339°
2026-05-04 07:35 49.23697 21.06921 26737 ft 422 kts 340°
2026-05-04 07:35 49.26392 21.05324 26124 ft 418 kts 339°
2026-05-04 07:35 49.29100 21.03718 25526 ft 415 kts 339°
2026-05-04 07:36 49.31712 21.01903 24930 ft 412 kts 331°
2026-05-04 07:36 49.34081 20.99459 24326 ft 410 kts 321°
2026-05-04 07:38 49.46796 20.76994 19191 ft 383 kts 310°
2026-05-04 07:38 49.48499 20.73877 18214 ft 378 kts 309°
2026-05-04 07:38 49.50183 20.70783 17252 ft 378 kts 309°
2026-05-04 07:38 49.51860 20.67693 16714 ft 374 kts 309°
2026-05-04 07:39 49.53521 20.64625 16158 ft 371 kts 308°
2026-05-04 07:39 49.55164 20.61584 15603 ft 368 kts 308°
2026-05-04 07:39 49.56815 20.58593 15044 ft 366 kts 312°
2026-05-04 07:39 49.58723 20.56000 14492 ft 365 kts 323°
2026-05-04 07:40 49.60845 20.53883 13954 ft 364 kts 326°
2026-05-04 07:40 49.62985 20.51810 13370 ft 362 kts 326°
2026-05-04 07:40 49.65106 20.49746 12789 ft 360 kts 326°
2026-05-04 07:40 49.67214 20.47686 12212 ft 358 kts 326°
2026-05-04 07:41 49.69307 20.45634 11650 ft 356 kts 326°
2026-05-04 07:41 49.71390 20.43588 11128 ft 354 kts 326°
2026-05-04 07:41 49.73464 20.41548 10606 ft 352 kts 326°
2026-05-04 07:41 49.75525 20.39519 10193 ft 350 kts 326°
2026-05-04 07:42 49.77574 20.37504 10045 ft 346 kts 326°
2026-05-04 07:42 49.79567 20.35548 9913 ft 332 kts 326°
2026-05-04 07:42 49.81447 20.33703 9763 ft 308 kts 326°
2026-05-04 07:42 49.83213 20.31963 9374 ft 296 kts 325°
2026-05-04 07:43 49.84927 20.30268 8869 ft 290 kts 325°
2026-05-04 07:43 49.86613 20.28595 8325 ft 288 kts 325°
2026-05-04 07:43 49.88294 20.26927 8042 ft 285 kts 325°
2026-05-04 07:43 49.89964 20.25270 7731 ft 284 kts 325°
2026-05-04 07:44 49.91601 20.23646 7454 ft 282 kts 325°
2026-05-04 07:44 49.93249 20.22008 7167 ft 280 kts 325°
2026-05-04 07:44 49.94889 20.20385 6867 ft 279 kts 325°
2026-05-04 07:44 49.96525 20.18764 6576 ft 278 kts 325°
2026-05-04 07:45 49.98151 20.17150 6279 ft 277 kts 325°
2026-05-04 07:45 49.99762 20.15550 6077 ft 271 kts 324°
2026-05-04 07:45 50.01306 20.14014 5944 ft 255 kts 324°
2026-05-04 07:45 50.02764 20.12583 5781 ft 245 kts 328°
2026-05-04 07:46 50.04351 20.11619 5529 ft 246 kts 344°
2026-05-04 07:46 50.06015 20.11078 5215 ft 242 kts 345°
2026-05-04 07:46 50.07612 20.10566 5055 ft 227 kts 345°
2026-05-04 07:46 50.09112 20.10082 4833 ft 216 kts 344°
2026-05-04 07:47 50.10476 20.09251 4508 ft 207 kts 317°
2026-05-04 07:47 50.11330 20.07537 4240 ft 198 kts 286°
2026-05-04 07:47 50.11484 20.05476 4047 ft 188 kts 258°
2026-05-04 07:49 50.09754 19.92812 2485 ft 147 kts 254°
2026-05-04 07:49 50.09549 19.91323 2281 ft 140 kts 255°
2026-05-04 07:49 50.09352 19.89874 2091 ft 136 kts 255°
2026-05-04 07:50 50.09150 19.88433 1878 ft 137 kts 255°
2026-05-04 07:50 50.08950 19.86970 1683 ft 139 kts 257°
2026-05-04 07:50 50.08744 19.85493 1506 ft 140 kts 256°
2026-05-04 07:50 50.08538 19.84007 1338 ft 140 kts 257°
2026-05-04 07:51 50.08338 19.82523 1149 ft 140 kts 256°
2026-05-04 07:51 50.08131 19.81040 955 ft 140 kts 256°
2026-05-04 07:51 50.07925 19.79565 811 ft 137 kts 255°
2026-05-04 07:51 50.07753 19.78346 801 ft 74 kts 258°
2026-05-04 07:52 50.07721 19.78124 798 ft 4 kts 254°
2026-05-04 07:52 50.07674 19.78090 799 ft 11 kts 179°
2026-05-04 07:52 50.07591 19.78090 800 ft 13 kts 181°
2026-05-04 07:52 50.07498 19.78085 800 ft 11 kts 171°
2026-05-04 07:53 50.07479 19.78197 800 ft 13 kts 77°
2026-05-04 07:54 50.07641 19.79354 800 ft 18 kts 77°
2026-05-04 07:55 50.07664 19.79519 800 ft 13 kts 78°
2026-05-04 07:55 50.07678 19.79629 800 ft 8 kts 75°
2026-05-04 07:55 50.07692 19.79721 800 ft 10 kts 77°
2026-05-04 07:55 50.07707 19.79839 800 ft 12 kts 90°
2026-05-04 07:56 50.07635 19.79892 800 ft 13 kts 168°
2026-05-04 07:56 50.07545 19.79921 800 ft 8 kts 167°
2026-05-04 07:56 50.07537 19.79924 800 ft 1 kts 167°
2026-05-04 07:56 50.07499 19.79937 800 ft 8 kts 167°
2026-05-04 07:57 50.07434 19.79959 800 ft 11 kts 168°
2026-05-04 07:57 50.07403 19.80057 800 ft 13 kts 79°
2026-05-04 07:57 50.07357 19.80096 800 ft 8 kts 184°
2026-05-04 07:57 50.07328 19.80106 800 ft 2 kts 166°
2026-05-04 07:58 50.07325 19.80107 800 ft 0 kts 167°